Waarnemingen

Advertentie
Mijn weer
Harsfjarden, Zweden (2489): temperatuur & dauwpunt: 14.01.2018 00:00:00 - 20.01.2018 00:00:00 (CET)Harsfjarden, Zweden (2489): windsnelheid & windstoten: 14.01.2018 00:00:00 - 20.01.2018 00:00:00 (CET)Harsfjarden, Zweden (2489): windrichting: 14.01.2018 00:00:00 - 20.01.2018 00:00:00 (CET)Harsfjarden, Zweden (2489): luchtdruk: 14.01.2018 00:00:00 - 20.01.2018 00:00:00 (CET)Harsfjarden, Zweden (2489): zicht: 14.01.2018 00:00:00 - 20.01.2018 00:00:00 (CET)Harsfjarden, Zweden (2489): neerslag: 14.01.2018 00:00:00 - 20.01.2018 00:00:00 (CET)
Datum & Tijd tt [°C] td [°C] ff [km/u] ff [kn] fx [km/u] fx [kn] dd ppp [hPa] vv [km] rr [mm]
20.01.2018 00:00:00 - - - - - - - - - -
19.01.2018 23:00:00 -4,9 -5,7 7 4 11 6 NNO 1007,5 30 0,0
19.01.2018 22:00:00 -3,7 -5,0 7 4 11 6 NNO 1007,4 45 0,0
19.01.2018 21:00:00 -3,4 -4,5 4 2 7 4 NNO 1007,2 40 0,0
19.01.2018 20:00:00 -3,4 -4,7 7 4 11 6 NNO 1006,8 45 0,0
19.01.2018 19:00:00 -3,3 -4,9 7 4 14 8 NNO 1006,5 45 0,0
19.01.2018 18:00:00 -3,4 -4,8 7 4 14 8 NNO 1006,3 40 0,0
19.01.2018 17:00:00 -3,2 -4,2 7 4 14 8 NNO 1006,3 40 0,0
19.01.2018 16:00:00 -1,9 -3,8 11 6 14 8 NNO 1005,5 45 0,0
19.01.2018 15:00:00 -1,7 -3,6 7 4 14 8 NO 1005,2 45 0,0
19.01.2018 14:00:00 -0,1 -3,5 11 6 14 8 NO 1004,7 45 0,0
19.01.2018 13:00:00 0,0 -3,4 7 4 11 6 ONO 1004,2 40 0,0
19.01.2018 12:00:00 -1,0 -3,8 7 4 14 8 NO 1003,8 40 0,0
19.01.2018 11:00:00 -2,4 -4,6 11 6 18 10 NNO 1003,5 30 0,0
19.01.2018 10:00:00 -4,1 -5,2 7 4 14 8 NNO 1003,2 30 0,0
19.01.2018 09:00:00 -4,1 -5,3 11 6 18 10 NNO 1002,5 28 0,0
19.01.2018 08:00:00 -3,6 -4,9 7 4 18 10 N 1001,7 35 0,0
19.01.2018 07:00:00 -2,9 -4,5 11 6 18 10 NNO 1000,8 40 0,0
19.01.2018 06:00:00 -3,0 -4,1 7 4 14 8 NNO 1000,3 30 0,0
19.01.2018 05:00:00 -2,8 -3,8 11 6 14 8 NNO 999,7 30 0,0
19.01.2018 04:00:00 -2,8 -3,9 7 4 11 6 NNO 999,3 35 0,0
19.01.2018 03:00:00 -2,8 -4,2 7 4 7 4 NNO 999,0 45 0,0
19.01.2018 02:00:00 -2,9 -4,5 7 4 7 4 NNO 998,5 45 0,0
19.01.2018 01:00:00 -2,2 -4,1 4 2 11 6 NNO 997,9 45 0,0
19.01.2018 00:00:00 -1,5 -4,0 7 4 14 8 NO 997,6 50 0,0
18.01.2018 23:00:00 -0,3 -4,2 7 4 14 8 ONO 997,4 45 0,0
18.01.2018 22:00:00 -0,3 -2,5 7 4 14 8 NO 997,1 45 0,0
18.01.2018 21:00:00 0,3 -2,2 7 4 18 10 ONO 996,6 45 0,0
18.01.2018 20:00:00 0,3 -1,1 7 4 18 10 NO 996,0 30 0,0
18.01.2018 19:00:00 0,6 -0,5 11 6 25 14 OZO 995,6 22 0,1
18.01.2018 18:00:00 0,5 -0,4 18 10 25 14 OZO 995,2 16 0,0
18.01.2018 17:00:00 0,4 -0,7 7 4 22 12 O 995,2 8 0,0
18.01.2018 16:00:00 0,6 -1,2 11 6 22 12 ONO 994,9 10 0,0
18.01.2018 15:00:00 0,7 -1,1 7 4 18 10 ONO 994,6 26 0,0
18.01.2018 14:00:00 0,6 -1,6 7 4 22 12 ONO 994,6 40 0,0
18.01.2018 13:00:00 0,6 -1,2 7 4 22 12 O 994,3 35 0,0
18.01.2018 12:00:00 0,1 -1,7 4 2 11 6 ONO 994,6 35 0,0
18.01.2018 11:00:00 -0,3 -2,0 7 4 14 8 NO 995,0 22 0,0
18.01.2018 10:00:00 -0,7 -2,1 7 4 14 8 NO 995,1 25 0,0
18.01.2018 09:00:00 -1,6 -2,7 7 4 11 6 NO 995,1 22 0,0
18.01.2018 08:00:00 -2,1 -2,9 7 4 11 6 NNO 995,0 18 0,0
18.01.2018 07:00:00 -2,2 -3,0 7 4 11 6 NNO 994,7 19 0,0
18.01.2018 06:00:00 -2,3 -3,1 4 2 7 4 NNO 994,7 17 0,0
18.01.2018 05:00:00 -2,4 -3,0 4 2 7 4 NNO 994,8 11 0,1
18.01.2018 04:00:00 -2,5 -3,0 7 4 7 4 NNO 994,8 4,0 0,1
18.01.2018 03:00:00 -2,6 -3,1 7 4 7 4 NNO 994,7 11 0,0
18.01.2018 02:00:00 -2,2 -2,9 4 2 11 6 NO 994,4 11 0,0
18.01.2018 01:00:00 -1,8 -2,5 7 4 11 6 ONO 994,1 7 0,1
18.01.2018 00:00:00 -2,2 -2,8 4 2 14 8 NO 994,1 7 0,2
17.01.2018 23:00:00 -2,3 -3,4 4 2 7 4 NO 993,6 2,6 0,0
17.01.2018 22:00:00 -2,1 -3,7 4 2 18 10 NNO 993,2 25 0,0
17.01.2018 21:00:00 -1,2 -3,2 7 4 18 10 ONO 992,7 27 0,0
17.01.2018 20:00:00 -1,3 -3,0 7 4 22 12 ONO 992,4 24 0,0
17.01.2018 19:00:00 -1,3 -2,9 11 6 22 12 ONO 992,1 24 0,0
17.01.2018 18:00:00 -1,2 -2,6 7 4 18 10 ONO 991,8 24 0,0
17.01.2018 17:00:00 -1,3 -3,0 7 4 18 10 ONO 991,6 29 3,0
17.01.2018 16:00:00 -1,3 -2,7 7 4 22 12 O 991,0 27 0,0
17.01.2018 15:00:00 -1,4 -2,5 7 4 25 14 O 990,6 25 0,0
17.01.2018 14:00:00 -1,5 -2,3 11 6 32 18 ONO 990,3 13 0,0
17.01.2018 13:00:00 -1,4 -2,0 18 10 32 18 OZO 989,9 9 0,0
17.01.2018 12:00:00 -1,6 -2,2 14 8 32 18 OZO 989,9 2,5 0,1
17.01.2018 11:00:00 -1,4 -2,0 22 12 36 19 OZO 989,6 3,5 0,0
17.01.2018 10:00:00 -1,4 -2,0 22 12 36 19 ZO 989,4 5 0,3
17.01.2018 09:00:00 -1,2 -1,8 25 14 36 19 ZO 989,3 2,8 0,1
17.01.2018 08:00:00 -1,1 -1,8 25 14 43 23 ZO 988,7 4,1 0,1
17.01.2018 07:00:00 -0,8 -1,6 29 16 43 23 ZO 988,5 8 0,0
17.01.2018 06:00:00 -0,7 -1,3 25 14 40 21 ZO 988,3 5 0,1
17.01.2018 05:00:00 -0,4 -1,0 29 16 43 23 ZO 988,0 8 0,0
17.01.2018 04:00:00 -0,2 -0,6 29 16 43 23 ZO 987,9 14 0,1
17.01.2018 03:00:00 -0,3 -0,4 29 16 43 23 ZO 988,2 4,8 0,1
17.01.2018 02:00:00 -0,6 -0,6 29 16 50 27 ZO 988,4 2,3 0,7
17.01.2018 01:00:00 -0,6 -0,6 32 18 54 29 ZO 988,7 1,9 0,4
17.01.2018 00:00:00 -0,6 -0,6 40 21 54 29 ZO 988,9 0,8 0,9
16.01.2018 23:00:00 -0,2 -0,2 29 16 43 23 ZO 989,0 1,1 0,9
16.01.2018 22:00:00 0,0 0,0 29 16 47 25 ZZO 989,1 1,3 0,8
16.01.2018 21:00:00 0,1 0,1 32 18 50 27 ZZO 989,3 1,1 2,0
16.01.2018 20:00:00 0,6 0,6 32 18 50 27 ZZO 989,5 2,5 0,7
16.01.2018 19:00:00 0,7 0,7 36 19 54 29 ZZO 989,5 3,5 0,6
16.01.2018 18:00:00 0,8 0,7 36 19 58 31 ZZO 989,4 2,5 0,4
16.01.2018 17:00:00 0,3 0,3 43 23 58 31 ZZO 989,7 2,0 0,4
16.01.2018 16:00:00 0,0 0,0 36 19 58 31 Z 990,0 2,9 0,4
16.01.2018 15:00:00 - - - - - - - - - -
16.01.2018 14:00:00 -0,2 -0,3 43 23 61 33 ZZO 990,6 1,1 0,4
16.01.2018 13:00:00 0,7 -1,1 50 27 72 39 ZZO 991,3 12 0,0
16.01.2018 12:00:00 1,2 -1,0 50 27 76 41 ZZO 992,0 18 0,0
16.01.2018 11:00:00 1,5 -1,1 47 25 76 41 ZZO 992,7 19 0,0
16.01.2018 10:00:00 1,4 -1,2 58 31 76 41 ZZO 993,4 18 0,0
16.01.2018 09:00:00 1,5 -1,1 50 27 72 39 ZZO 994,3 18 0,0
16.01.2018 08:00:00 1,5 -1,1 50 27 68 37 ZZO 994,6 18 0,0
16.01.2018 07:00:00 1,5 -1,1 47 25 68 37 ZZO 995,9 16 0,0
16.01.2018 06:00:00 1,3 -1,1 50 27 68 37 ZZO 996,9 17 0,0
16.01.2018 05:00:00 1,3 -1,3 43 23 61 33 ZZO 998,4 20 0,0
16.01.2018 04:00:00 1,2 -1,4 47 25 65 35 ZZO 999,7 21 0,0
16.01.2018 03:00:00 1,0 -1,6 47 25 65 35 Z 1001,4 24 0,0
16.01.2018 02:00:00 0,9 -1,7 40 21 58 31 ZZO 1002,9 26 0,0
16.01.2018 01:00:00 0,8 -1,8 40 21 58 31 Z 1004,2 26 0,0
16.01.2018 00:00:00 0,6 -2,0 43 23 58 31 ZZO 1005,6 28 0,0
15.01.2018 23:00:00 0,6 -2,0 43 23 58 31 Z 1006,8 29 0,0
15.01.2018 22:00:00 0,4 -2,3 40 21 61 33 Z 1008,0 30 0,0
15.01.2018 21:00:00 0,4 -2,1 40 21 58 31 Z 1009,3 27 0,0
15.01.2018 20:00:00 0,3 -2,2 43 23 58 31 Z 1010,3 26 0,0
15.01.2018 19:00:00 -0,1 -3,1 36 19 58 31 Z 1011,8 28 0,0
15.01.2018 18:00:00 -0,3 -3,2 43 23 58 31 Z 1013,1 24 0,0
15.01.2018 17:00:00 -0,5 -4,0 36 19 58 31 Z 1014,4 30 0,0
15.01.2018 16:00:00 -0,4 -3,6 40 21 58 31 Z 1015,6 24 0,0
15.01.2018 15:00:00 -0,4 -3,3 36 19 58 31 Z 1016,4 20 0,0
15.01.2018 14:00:00 -0,5 -2,9 32 18 58 31 Z 1017,5 21 0,0
15.01.2018 13:00:00 -0,5 -3,0 32 18 50 27 Z 1018,7 21 0,0
15.01.2018 12:00:00 -0,3 -3,2 32 18 50 27 Z 1019,8 24 0,0
15.01.2018 11:00:00 -0,3 -3,0 36 19 50 27 Z 1020,6 22 0,0
15.01.2018 10:00:00 0,0 -3,0 36 19 54 29 Z 1021,4 25 0,0
15.01.2018 09:00:00 -0,1 -3,1 36 19 50 27 Z 1022,2 30 0,0
15.01.2018 08:00:00 0,0 -2,9 32 18 50 27 Z 1023,0 35 0,0
15.01.2018 07:00:00 0,2 -2,8 32 18 47 25 Z 1023,7 40 0,0
15.01.2018 06:00:00 0,1 -2,6 32 18 50 27 Z 1024,3 40 0,0
15.01.2018 05:00:00 -0,1 -3,0 25 14 43 23 Z 1025,3 45 0,0
15.01.2018 04:00:00 -0,1 -3,1 29 16 40 21 Z 1026,3 45 0,0
15.01.2018 03:00:00 -0,4 -3,8 25 14 40 21 Z 1027,3 50 0,0
15.01.2018 02:00:00 -0,3 -3,8 25 14 47 25 Z 1028,0 45 0,0
15.01.2018 01:00:00 -0,2 -3,7 25 14 40 21 Z 1028,9 45 0,0
15.01.2018 00:00:00 -0,3 -3,8 25 14 36 19 Z 1029,6 50 0,0
14.01.2018 23:00:00 -0,3 -3,8 25 14 40 21 Z 1030,3 50 0,0
14.01.2018 22:00:00 -0,2 -4,1 25 14 40 21 Z 1030,9 50 0,0
14.01.2018 21:00:00 0,2 -3,4 25 14 40 21 Z 1031,1 50 0,0
14.01.2018 20:00:00 0,3 -3,4 29 16 36 19 ZZO 1031,9 45 0,0
14.01.2018 19:00:00 0,4 -3,5 22 12 32 18 Z 1032,7 50 0,0
14.01.2018 18:00:00 0,5 -3,4 22 12 32 18 Z 1033,2 50 0,0
14.01.2018 17:00:00 0,6 -3,3 25 14 36 19 Z 1033,6 50 0,0
14.01.2018 16:00:00 0,8 -3,1 29 16 36 19 ZZO 1034,0 45 0,0
14.01.2018 15:00:00 1,0 -3,3 22 12 36 19 Z 1034,4 50 0,0
14.01.2018 14:00:00 1,3 -3,2 18 10 32 18 Z 1034,8 45 0,0
14.01.2018 13:00:00 1,6 -4,1 18 10 29 16 Z 1035,1 45 0,0
14.01.2018 12:00:00 1,6 -3,7 18 10 25 14 Z 1035,5 45 0,0
14.01.2018 11:00:00 1,5 -3,0 18 10 25 14 Z 1036,0 45 0,0
14.01.2018 10:00:00 1,5 -3,6 18 10 25 14 Z 1036,4 50 0,0
14.01.2018 09:00:00 1,5 -3,4 18 10 25 14 Z 1036,4 50 0,0
14.01.2018 08:00:00 1,6 -3,9 14 8 25 14 ZZW 1036,6 50 0,0
14.01.2018 07:00:00 1,3 -3,6 14 8 25 14 Z 1036,7 50 0,0
14.01.2018 06:00:00 1,4 -3,5 18 10 25 14 Z 1036,8 45 0,0
14.01.2018 05:00:00 1,3 -3,4 14 8 22 12 Z 1037,1 50 0,0
14.01.2018 04:00:00 1,2 -3,6 14 8 25 14 Z 1037,7 45 0,0
14.01.2018 03:00:00 1,3 -3,6 11 6 25 14 ZZW 1038,1 50 0,0
14.01.2018 02:00:00 1,2 -4,1 18 10 29 16 ZZW 1038,3 50 0,0
14.01.2018 01:00:00 1,2 -3,7 18 10 25 14 Z 1038,6 50 0,0
14.01.2018 00:00:00 1,3 -3,6 18 10 29 16 Z 1038,9 50 0,0

tt = temperatuur
td = dauwpunt
ff = windsnelheid
fx = windstoten
dd = windrichting
ppp = luchtdruk
vv = zicht
rr = neerslag

Weerstations in de omgeving